Location: Piotrkow Trybunalski
(51.4000°N, 19.6830°E)
Time: 01:56:01
(UTC+01:00)

A-11 Canister half - Pass Details

Date: 15 December 2023
Orbit: 1512 x 1687 km, 47.2° (Epoch: 23 February)

Event Time Altitude Azimuth Distance (km) Brightness Sun altitude
Exits shadow 05:30:46 12° 242° (WSW) 3,749 10.6 -18.8°
Maximum altitude 05:31:39 12° 237° (WSW) 3,740 10.6 -18.6°
Drops below altitude 10° 05:35:00 10° 217° (SW) 3,924 10.9 -18.1°
Sets 05:41:02 0° 190° (S) 4,925 11.7 -17.2°
